User: anonymous
Location: Caltech
(34.1382°N, 118.1253°W)
Time: 22:31:49
(UTC-07:00)
Language:

Cosmos 2219 Rocket - Orbit

View from above orbital plane
View from above orbital plane
View from above satellite
View from above satellite

Ground track
Ground track

The orbit data is extracted from the following two-line orbital elements,

1 22220U 92076B   14234.08609758 -.00000281  00000-0 -11745-3 0  3818
2 22220 071.0003 067.4040 0011795 032.8838 114.8802 14.16321955124915
Epoch (UTC): 22 August 2014 02:03:58
Eccentricity: 0.0011795
inclination: 71.0003°
perigee height: 829 km
apogee height: 846 km
right ascension of ascending node: 67.4040°
argument of perigee: 32.8838°
revolutions per day: 14.16321955
mean anomaly at epoch: 114.8802°
orbit number at epoch: 12491

The dashed part of the orbit path shows where the satellite is in the earth's shadow,  

DLR